Hourly Weather Plovdiv

Today, 31 October, Saturday

Time Temperature Precipitation Wind Pressure Humidity
00:00 +8°C° 0 mm 2 mps 742 mmHg 67%
01:00 +8°C° 0 mm 2 mps 742 mmHg 65%
02:00 +8°C° 0 mm 2 mps 742 mmHg 63%
03:00 +9°C° 0 mm 2 mps 742 mmHg 65%
04:00 +9°C° 0 mm 2 mps 742 mmHg 66%
05:00 +9°C° 0 mm 2 mps 741 mmHg 67%
06:00 +10°C° 0 mm 2 mps 742 mmHg 68%
07:00 +11°C° 0 mm 1 mps 742 mmHg 68%
08:00 +12°C° 0 mm 2 mps 741 mmHg 68%
09:00 +14°C° 0 mm 2 mps 741 mmHg 64%
10:00 +16°C° 0 mm 3 mps 741 mmHg 59%
11:00 +18°C° 0 mm 3 mps 741 mmHg 55%
12:00 +18°C° 0 mm 3 mps 740 mmHg 55%
13:00 +18°C° 0 mm 3 mps 740 mmHg 54%
14:00 +19°C° 0 mm 3 mps 739 mmHg 54%
15:00 +18°C° 0 mm 3 mps 739 mmHg 58%
16:00 +17°C° 0 mm 2 mps 738 mmHg 63%
17:00 +16°C° 0 mm 2 mps 738 mmHg 67%
18:00 +16°C° 0.1 mm 2 mps 738 mmHg 70%
19:00 +15°C° 0.1 mm 2 mps 738 mmHg 72%
20:00 +15°C° 0.1 mm 2 mps 738 mmHg 75%
21:00 +14°C° 0.2 mm 3 mps 739 mmHg 77%
22:00 +14°C° 0.2 mm 3 mps 739 mmHg 80%
23:00 +13°C° 0.2 mm 3 mps 740 mmHg 82%

Tomorrow, 1 November, Sunday

Time Temperature Precipitation Wind Pressure Humidity
00:00 +12°C° 0.1 mm 3 mps 740 mmHg 82%
01:00 +13°C° 0.1 mm 2 mps 740 mmHg 83%
02:00 +12°C° 0.1 mm 2 mps 741 mmHg 83%
03:00 +10°C° 0 mm 2 mps 741 mmHg 84%
04:00 +11°C° 0 mm 1 mps 741 mmHg 84%
05:00 +10°C° 0 mm 1 mps 741 mmHg 84%
06:00 +10°C° 0 mm 1 mps 741 mmHg 82%
07:00 +10°C° 0 mm 1 mps 742 mmHg 81%
08:00 +10°C° 0 mm 1 mps 742 mmHg 80%
09:00 +12°C° 0 mm 1 mps 742 mmHg 68%
10:00 +14°C° 0 mm 2 mps 742 mmHg 56%
11:00 +16°C° 0 mm 2 mps 742 mmHg 44%
12:00 +16°C° 0 mm 2 mps 742 mmHg 40%
13:00 +17°C° 0 mm 2 mps 742 mmHg 37%
14:00 +18°C° 0 mm 2 mps 741 mmHg 33%
15:00 +16°C° 0 mm 2 mps 741 mmHg 38%
16:00 +15°C° 0 mm 1 mps 741 mmHg 44%
17:00 +14°C° 0 mm 1 mps 741 mmHg 49%
18:00 +13°C° 0 mm 1 mps 741 mmHg 51%
19:00 +12°C° 0 mm 1 mps 741 mmHg 53%
20:00 +10°C° 0 mm 2 mps 742 mmHg 55%
21:00 +11°C° 0 mm 1 mps 742 mmHg 55%
22:00 +10°C° 0 mm 1 mps 742 mmHg 54%
23:00 +10°C° 0 mm 1 mps 742 mmHg 54%

Day after tomorrow, 2 November, Monday

Time Temperature Precipitation Wind Pressure Humidity
00:00 +9°C° 0 mm 2 mps 742 mmHg 52%
01:00 +9°C° 0 mm 2 mps 742 mmHg 51%
02:00 +8°C° 0 mm 2 mps 742 mmHg 49%
03:00 +8°C° 0 mm 2 mps 742 mmHg 47%
04:00 +8°C° 0 mm 2 mps 742 mmHg 44%
05:00 +8°C° 0 mm 2 mps 742 mmHg 42%
06:00 +9°C° 0 mm 2 mps 742 mmHg 41%
07:00 +11°C° 0 mm 1 mps 742 mmHg 39%
08:00 +12°C° 0 mm 1 mps 742 mmHg 37%
09:00 +14°C° 0 mm 1 mps 742 mmHg 36%
10:00 +16°C° 0 mm 1 mps 742 mmHg 35%
11:00 +19°C° 0 mm 1 mps 742 mmHg 33%
12:00 +19°C° 0 mm 2 mps 742 mmHg 37%
13:00 +19°C° 0 mm 2 mps 742 mmHg 40%
14:00 +19°C° 0 mm 2 mps 741 mmHg 44%
15:00 +19°C° 0 mm 1 mps 741 mmHg 48%
16:00 +18°C° 0 mm 1 mps 741 mmHg 52%
17:00 +16°C° 0 mm 1 mps 741 mmHg 57%
18:00 +16°C° 0 mm 1 mps 741 mmHg 58%
19:00 +15°C° 0 mm 1 mps 741 mmHg 59%
20:00 +14°C° 0 mm 1 mps 741 mmHg 61%
21:00 +14°C° 0 mm 1 mps 741 mmHg 60%
22:00 +15°C° 0 mm 1 mps 741 mmHg 60%
23:00 +15°C° 0 mm 1 mps 741 mmHg 59%

3 November, Tuesday

Time Temperature Precipitation Wind Pressure Humidity
00:00 +15°C° 0 mm 1 mps 741 mmHg 59%
01:00 +15°C° 0 mm 1 mps 741 mmHg 58%
02:00 +15°C° 0 mm 1 mps 740 mmHg 58%
03:00 +15°C° 0 mm 1 mps 740 mmHg 61%
04:00 +15°C° 0 mm 1 mps 740 mmHg 63%
05:00 +15°C° 0 mm 1 mps 740 mmHg 66%
06:00 +14°C° 0.1 mm 0 mps 740 mmHg 70%
07:00 +14°C° 0.1 mm 0 mps 741 mmHg 74%
08:00 +13°C° 0.1 mm 0 mps 741 mmHg 78%
09:00 +14°C° 0.1 mm 0 mps 741 mmHg 79%
10:00 +14°C° 0.1 mm 0 mps 741 mmHg 81%
11:00 +14°C° 0.1 mm 0 mps 741 mmHg 82%
12:00 +16°C° 0 mm 1 mps 741 mmHg 79%
13:00 +18°C° 0 mm 1 mps 741 mmHg 77%
14:00 +19°C° 0 mm 1 mps 741 mmHg 74%
15:00 +18°C° 0 mm 1 mps 741 mmHg 77%
16:00 +18°C° 0 mm 1 mps 741 mmHg 80%
17:00 +15°C° 0 mm 0 mps 741 mmHg 83%
18:00 +15°C° 0 mm 0 mps 741 mmHg 84%
19:00 +16°C° 0 mm 1 mps 741 mmHg 84%
20:00 +16°C° 0 mm 1 mps 741 mmHg 84%
21:00 +16°C° 0 mm 1 mps 741 mmHg 85%
22:00 +16°C° 0 mm 1 mps 742 mmHg 86%
23:00 +15°C° 0 mm 1 mps 742 mmHg 86%

4 November, Wednesday

Time Temperature Precipitation Wind Pressure Humidity
00:00 +15°C° 0 mm 1 mps 742 mmHg 87%
01:00 +15°C° 0 mm 1 mps 742 mmHg 87%
02:00 +15°C° 0 mm 1 mps 742 mmHg 88%
03:00 +15°C° 0 mm 1 mps 742 mmHg 89%
04:00 +14°C° 0 mm 1 mps 742 mmHg 90%
05:00 +14°C° 0 mm 1 mps 741 mmHg 91%
06:00 +14°C° 0 mm 1 mps 742 mmHg 90%
07:00 +15°C° 0 mm 1 mps 742 mmHg 89%
08:00 +15°C° 0 mm 1 mps 742 mmHg 88%
09:00 +16°C° 0 mm 1 mps 743 mmHg 84%
10:00 +18°C° 0 mm 1 mps 743 mmHg 80%
11:00 +19°C° 0 mm 1 mps 743 mmHg 76%
12:00 +19°C° 0 mm 1 mps 743 mmHg 76%
13:00 +19°C° 0 mm 1 mps 743 mmHg 77%
14:00 +19°C° 0 mm 1 mps 743 mmHg 77%
15:00 +18°C° 0 mm 1 mps 743 mmHg 81%
16:00 +16°C° 0 mm 1 mps 743 mmHg 85%
17:00 +16°C° 0 mm 1 mps 743 mmHg 88%
18:00 +15°C° 0 mm 1 mps 743 mmHg 89%
19:00 +15°C° 0 mm 1 mps 744 mmHg 90%
20:00 +15°C° 0 mm 1 mps 745 mmHg 91%
21:00 +15°C° 0 mm 1 mps 745 mmHg 91%
22:00 +15°C° 0 mm 1 mps 745 mmHg 91%
23:00 +14°C° 0 mm 1 mps 746 mmHg 91%

5 November, Thursday

Time Temperature Precipitation Wind Pressure Humidity
00:00 +14°C° 0 mm 1 mps 746 mmHg 90%
01:00 +14°C° 0 mm 1 mps 746 mmHg 89%
02:00 +14°C° 0 mm 1 mps 746 mmHg 89%
03:00 +13°C° 0 mm 1 mps 746 mmHg 88%
04:00 +13°C° 0 mm 1 mps 747 mmHg 88%
05:00 +13°C° 0 mm 1 mps 747 mmHg 88%
06:00 +13°C° 0 mm 1 mps 747 mmHg 87%
07:00 +13°C° 0 mm 1 mps 747 mmHg 87%
08:00 +12°C° 0 mm 0 mps 747 mmHg 86%
09:00 +14°C° 0 mm 1 mps 747 mmHg 80%
10:00 +15°C° 0 mm 1 mps 747 mmHg 74%
11:00 +16°C° 0 mm 1 mps 747 mmHg 67%
12:00 +16°C° 0 mm 1 mps 747 mmHg 64%
13:00 +18°C° 0 mm 1 mps 747 mmHg 61%
14:00 +18°C° 0 mm 1 mps 747 mmHg 58%
15:00 +16°C° 0 mm 1 mps 747 mmHg 61%
16:00 +15°C° 0 mm 1 mps 746 mmHg 65%
17:00 +14°C° 0 mm 1 mps 746 mmHg 68%
18:00 +13°C° 0 mm 1 mps 746 mmHg 70%
19:00 +13°C° 0 mm 1 mps 747 mmHg 72%
20:00 +12°C° 0 mm 1 mps 747 mmHg 73%
21:00 +11°C° 0 mm 1 mps 747 mmHg 75%
22:00 +11°C° 0 mm 1 mps 747 mmHg 76%
23:00 +11°C° 0 mm 1 mps 747 mmHg 78%
Show more